Location: Kampong Paya Jaras Dalam
(3.1833°N, 101.5500°E)
Time: 07:43:09
(UTC+00:00)

Daily predictions for brighter satellites

Satellite Brightness Start Highest point End
(mag) Time Altitude Azimuth Time Altitude Azimuth Time Altitude Azimuth
FALCON 9 R/B 3.9 12:00:22 10° W 12:05:51 50° NNW 12:25:40 10° NE
Thor Agena Rocket 4.3 12:01:20 10° S 12:06:18 54° WSW 12:11:13 10° NNW
SJ-6B 4.5 12:08:51 13° ENE 12:08:51 13° ENE 12:10:13 10° NE
Cosmos 2123 Rocket 4.4 12:02:40 10° N 12:08:56 70° W 12:15:09 10° S
ATLAS 2A CENTAUR R/B 3.2 12:05:59 10° WSW 12:10:02 85° SSE 12:19:57 10° ENE
GPS 2-17 Rocket1 3.6 12:08:24 10° SW 12:12:15 34° SSE 12:14:06 23° ESE
Cosmos 1862 2.9 12:08:54 10° N 12:12:24 70° E 12:15:56 10° S
Cosmos 909 Rocket 4.5 12:11:20 10° SSW 12:19:08 78° WNW 12:25:38 10° NNE
PSLV R/B 3.9 12:21:55 28° ESE 12:23:25 38° ENE 12:27:15 10° N
OAO 1 Rocket 4.3 12:21:54 10° SW 12:27:11 67° SE 12:30:56 19° ENE
Cosmos 1459 Rocket 3.9 12:23:55 10° S 12:30:10 64° E 12:36:19 10° NNE
Ariane H10+ 1.4 12:28:54 10° WSW 12:31:52 48° SSE 12:32:37 42° SE
Centaur D-1A AC-31 4.4 12:26:00 10° SSW 12:33:15 36° SE 22:28:05 10° E
CZ-2D R/B 3.1 12:32:12 24° S 12:34:28 89° W 12:38:15 10° NNW
Cosmos 1375 Rocket 4.4 12:28:55 10° SSW 12:35:13 73° ESE 12:41:37 10° NNE
Tiangong -2.3 12:32:23 10° SW 12:35:29 84° SSE 12:35:29 84° SSE
Cosmos 1697 Rocket 4.1 12:32:37 10° NNE 12:35:42 19° ENE 12:35:42 19° ENE
ATLAS 5 CENTAUR R/B 4.3 12:32:10 10° WNW 12:37:09 27° WSW 12:42:41 10° S
Cosmos 1802 Rocket 4.1 12:32:40 10° SSE 12:38:46 53° E 12:44:44 10° NNE
Sich 1 Rocket 3.6 12:35:33 10° S 12:39:54 77° W 12:44:14 10° N
Cosmos 2346 Rocket 4.4 12:34:48 10° N 12:41:04 84° E 12:47:14 10° S
Ariane H10+ 3.2 12:30:28 10° W 12:41:06 77° N 12:42:04 48° ENE
SL-8 R/B 3.7 12:36:24 10° NW 12:41:06 77° SW 12:42:40 41° SSE
Ariane H10+ 3.7 12:41:21 10° SW 12:41:28 11° SW 12:41:28 11° SW
SAR-Lupe-4 3.7 12:43:14 45° S 12:44:09 69° W 12:47:37 10° NNW
COSMOS 2406 3.1 12:39:10 10° S 12:44:52 69° ESE 12:50:33 10° NNE
SJ-7 4.4 12:44:25 35° S 12:45:50 66° W 12:49:30 10° NNW
Cosmos 1864 Rocket 4.4 12:44:34 10° S 12:50:53 74° E 12:57:11 10° N
GMS 1 Rocket B 4.1 12:47:53 10° WSW 12:52:02 86° NNW 12:52:02 86° NNW
Resurs 01 Rocket 2.6 12:50:37 15° S 12:53:56 44° WSW 12:58:04 10° NNW
Cosmos 2100 Rocket 4.4 12:47:57 10° SSW 12:54:01 63° W 13:00:09 10° N
NOAA 6 4.5 12:50:30 16° S 12:54:25 59° WSW 12:59:25 10° NNW
GPS 2-12 Rocket1 3.6 12:52:42 10° NW 12:56:44 41° NNE 12:56:44 41° NNE
Cosmos 1992 Rocket 3.9 12:52:19 10° SSW 12:57:32 83° WNW 13:02:43 10° N
ARIANE 5 DEB (SYLDA) 3.4 12:52:13 10° W 12:57:42 52° SSW 12:57:42 52° SSW
Aurora 2 Rocket 4.2 12:57:16 10° WSW 12:58:41 17° SW 12:58:41 17° SW
deb Olympus 3.9 12:56:33 10° W 12:59:55 69° N 13:02:31 38° ENE
ARIANE 5 R/B 2.7 12:40:34 10° W 13:00:48 53° S 13:01:41 48° SSE
Cosmos 2233 Rocket 4.3 13:04:21 46° ENE 13:04:21 46° ENE 13:09:14 10° NNE
ARIANE DEB (SPELDA) 3.4 12:59:55 10° W 13:03:22 89° S 13:05:45 46° E
Cosmos 1536 Rocket 4.5 13:01:43 10° N 13:04:31 39° NNE 13:04:31 39° NNE
Cosmos 1455 Rocket 3.5 13:09:51 56° WSW 13:10:12 58° W 13:14:31 10° N
Ariane H10 3.1 13:07:00 10° W 13:10:20 83° S 13:10:50 73° ESE
SL-08 R/B 4.3 13:12:12 68° SSE 13:12:58 78° E 13:19:14 10° N
ARIANE 44LP R/B 3.2 13:01:07 10° W 13:13:14 60° N 13:13:29 59° N
SJ 16-02 4.2 13:17:24 10° WNW 13:19:09 12° W 13:20:54 10° SW
Cosmos 1725 Rocket 4.4 13:16:35 10° SSW 13:22:47 61° W 13:28:56 10° N
Delta 202 4.1 13:26:03 10° WNW 13:30:13 56° NW 13:30:13 56° NW
USA 229 DEB 4.1 13:35:06 10° NNW 13:42:53 74° NNE 13:42:53 74° NNE
USA 229 4.1 13:35:09 10° NNW 13:42:52 73° NNE 13:42:52 73° NNE
ATLAS 3B R/B 4.1 14:10:10 10° NNW 14:13:45 32° NNW 14:13:45 32° NNW
USA 267 4.0 20:15:18 10° NE 20:20:23 47° E 20:20:23 47° E
CZ-3 Stage 3 4.0 20:19:49 37° N 20:22:55 52° NE 20:45:57 10° ESE
Cosmos 1943 Rocket 3.7 20:25:13 32° ENE 20:25:13 32° ENE 20:28:34 10° NNE
ATLAS 5 CENTAUR R/B 4.4 20:35:48 52° SW 20:40:03 58° S 21:44:59 10° ESE
Ariane H10+ 4.4 20:37:27 50° WNW 20:42:49 81° N 20:58:17 10° E
Hubble Space Telescope 3.7 20:48:42 10° ESE 20:48:42 10° ESE 20:48:45 10° ESE
Meteor 2-13 Rocket 4.5 20:53:07 72° N 20:53:07 72° N 20:58:34 10° N
Cosmos 2278 Rocket 2.3 20:56:51 73° ENE 20:56:51 73° ENE 21:02:07 10° NNE
H-2A R/B 4.3 20:56:54 10° N 20:57:44 16° N 20:57:44 16° N
USA 238 DEB 3.3 21:00:46 70° SE 21:01:08 73° ESE 21:07:01 10° NNE
USA 238 3.3 21:00:54 68° SE 21:01:20 71° ESE 21:07:12 10° NNE
SL-16 R/B 4.2 20:58:11 10° SE 21:03:36 31° ENE 21:09:00 10° NNE
Meteor 2-5 Rocket 3.5 21:08:24 82° S 21:08:40 90° WNW 21:14:10 10° N
Exosat Rocket 3.7 21:12:12 63° NW 21:12:12 63° NW 21:16:53 10° N
USA 59 Rocket 0.9 21:10:32 44° S 21:12:20 65° ESE 21:17:06 10° NNE
ASC 2 Rocket 3.2 21:13:56 68° ENE 21:13:56 68° ENE 21:18:16 10° ENE
Cosmos 1703 Rocket 4.1 21:16:56 41° SE 21:18:04 55° E 21:22:16 10° NNE
BREEZE-M DEB (TANK) 2.8 21:20:26 66° ESE 21:20:26 66° ESE 21:26:15 10° NE
Cosmos 1867 3.5 21:18:33 10° NNW 21:23:58 83° ENE 21:29:22 10° SSE
Meteor 1-24 Rocket 4.0 21:26:33 43° WNW 21:26:33 43° WNW 21:31:03 10° NNW
ATLAS 2AS CENTAUR R/B 2.6 21:20:07 10° NNW 21:26:58 79° WSW 21:34:00 10° SSE
NOSS 2-1 (C) 4.4 21:26:44 25° SSW 21:30:49 71° ESE 21:35:44 10° NNE
GPS 2-15 Rocket1 2.9 21:31:05 62° WNW 21:31:51 90° SSW 21:36:26 10° ESE
CZ-2C R/B 2.4 21:30:03 10° N 21:34:21 47° WNW 21:34:21 47° WNW
Cosmos 1048 Rocket 4.0 21:33:57 50° WSW 21:34:43 55° WNW 21:39:41 10° N
Cosmos 1939 Rocket 2.6 21:34:05 10° N 21:37:51 87° WNW 21:38:47 50° SSW
Delta 198 4.2 21:38:43 23° NNW 21:40:33 39° NNE 21:43:55 10° E
Cosmos 2341 Rocket 3.9 21:36:06 10° N 21:42:23 86° W 21:48:37 10° S
Nadezhda 3 Rocket 3.9 21:37:17 10° S 21:43:31 87° E 21:49:40 10° N
Centaur D AC-25 4.1 21:46:53 15° NW 21:48:05 17° NNW 21:50:33 10° NNE
SL-8 Rocket 3.9 21:42:42 10° N 21:48:49 70° W 21:54:56 10° S
Cosmos 2218 Rocket 4.0 21:46:32 10° N 21:52:55 81° W 21:59:16 10° S
IUS-13 SRM-1 2.9 21:55:24 21° NNW 21:55:42 22° NNW 21:58:13 10° NE
Cosmos 2369 Rocket 4.2 21:58:50 10° SSE 22:03:34 28° ESE 22:08:14 10° NE
USA 267 4.5 21:59:20 10° N 22:04:18 24° NW 22:07:45 16° W
SL-12 R/B(2) 4.0 21:59:48 15° SW 22:05:44 59° WNW 22:13:15 10° NNE
SEDSat Delta rocket 4.1 22:01:41 10° NW 22:06:22 45° NNE 22:10:33 10° ESE
Cosmos 1943 Rocket 4.0 22:06:46 12° WNW 22:06:46 12° WNW 22:08:46 10° NW
USA 281 4.1 22:03:04 10° SSW 22:08:10 24° WSW 22:13:18 10° WNW
Cosmos 1833 Rocket 3.8 22:03:29 10° N 22:08:51 47° ENE 22:14:14 10° SSE
OAO 2 Rocket 3.9 22:09:16 19° W 22:12:20 40° NW 22:16:51 10° NNE
Cosmos 1733 Rocket 4.0 22:10:06 10° NW 22:13:33 24° W 22:17:01 10° SSW
Cosmos 1420 Rocket 3.9 22:08:33 10° NNW 22:13:45 88° WSW 22:18:55 10° SSE
Cosmos 44 Rocket 4.0 22:09:42 10° N 22:14:35 58° ENE 22:19:19 10° SSE
Cosmos 1908 Rocket 4.1 22:11:47 10° N 22:16:09 64° E 22:20:32 10° SSE
H-2A R/B 3.3 22:13:13 10° NNE 22:17:01 81° ESE 22:20:48 10° S
Lacrosse 5 rocket 3.1 22:15:18 10° S 22:18:17 24° ESE 22:21:13 10° ENE
ARIANE 5 R/B 1.2 22:17:39 13° W 22:20:31 85° N 22:24:56 10° E
Cosmos 1656 Rocket 3.7 22:18:35 10° SSW 22:23:53 56° WNW 22:29:08 10° N
Hubble Space Telescope 0.7 22:22:44 14° WSW 22:25:47 60° NNW 22:29:29 10° NE
Ariane H10 4.5 21:27:34 10° W 22:25:54 77° N 22:31:25 10° E
IUS R/B (1) 3.0 22:28:04 11° W 22:30:15 21° SSW 22:32:14 10° SSE
Cosmos 1315 Rocket 2.7 22:30:32 10° N 22:34:15 87° E 22:38:02 10° S
SWAS 4.4 22:35:05 10° SSW 22:39:00 56° WNW 22:42:54 10° N
ARIANE 5 DEB (SYLDA) 3.9 22:37:16 10° WSW 22:40:37 40° S 22:47:03 10° ESE
CZ-4 R/B 3.9 22:36:50 10° N 22:41:44 75° WNW 22:46:41 10° SSW
MOS 1 Rocket 3.0 22:39:15 10° N 22:43:27 70° W 22:47:45 10° SSW
Cosmos 2297 4.2 22:38:53 10° S 22:44:31 67° ESE 22:50:10 10° NNE
HETE-2 4.3 22:41:49 10° W 22:45:32 67° S 22:49:09 10° E
SL-16 R/B 3.6 22:42:05 10° SSW 22:46:51 23° WSW 22:51:37 10° NW
CZ-3 R/B 2.2 22:31:29 10° WNW 22:47:09 77° SSW 22:52:23 10° SE
ARIANE 5 R/B 4.2 22:18:14 10° W 23:09:01 76° S 23:13:56 10° E
